Retour au catalogue

THOR ABLESTAR DEB

ActifLEO
NORAD 131·DEBRIS·🇺🇸 United States

Lancé Jun 29, 1961 depuis Cape Canaveral Space Force Station

Loading…

Prochains Passages (prochaines 24 heures)

TLE

FraisSource: Space-Track

Époque: Sep 7, 2026, 12:13 UTC

1 00131U 61015R   26250.50940133  .00000052  00000-0  84371-4 0  9992
2 00131  66.7328 258.2848 0078660   6.6809 353.5303 14.01809492315001

Suivez THOR ABLESTAR DEB en temps réel avec AllMySat

Download on the App Store